This demonstration page uses our WeatherBlox Daily Observations layout. Learn more.

Left ArrowRight Arrow

38.83388, -104.82136

Hourly Observations for May 3, 2018

Temp ( °F °C ) Dew Point ( °F °C ) Humidity (%) Winds ( mph kmh ) Pressure ( in mb ) Visibility ( mi km ) Precip ( " mm )
12:12 am 00:12 Mostly Cloudy with Light Rain 43 6 37 3 81 81 Calm 29.57 1001 10 16 0.00 0.00
12:42 am 00:42 Cloudy with Light Showers 43 6 32 0 66 66 SSW 3 6 29.54 1000 10 16 0.00 0.00
12:58 am 00:58 Mostly Cloudy with Light Showers 43 6 35 1.9 75 75 N 5 7 29.50 999 10 16 0.00 0.00
1:00 am 01:00 Mostly Cloudy 43 6 36 2 76 76 N 7 11 29.49 999 10 16 0.00 0.00
1:58 am 01:58 Cloudy with Nearby Thunderstorms 41 5.2 34 1.3 76 76 Calm 29.50 999 10 16 0.00 0.00
2:02 am 02:02 Cloudy with Thunderstorms 41 5 34 1 76 76 SE 5 7 29.50 999 10 16 0.00 0.00
2:26 am 02:26 Mostly Cloudy 41 5 37 3 87 87 S 9 15 29.48 998 10 16 0.00 0.00
2:31 am 02:31 Mostly Cloudy 41 5 37 3 87 87 S 9 15 29.48 998 10 16 0.00 0.00
2:58 am 02:58 Mostly Cloudy 40 4.3 38 3.1 92 92 SSE 5 7 29.49 999 10 16 0.00 0.00
3:13 am 03:13 Partly Cloudy 39 4 37 3 93 93 SSW 6 9 29.48 998 10 16 0.00 0.00
3:58 am 03:58 Mostly Cloudy 39 4.1 35 1.6 84 84 NNW 7 11 29.47 998 10 16 0.00 0.00
4:58 am 04:58 Mostly Cloudy 39 3.9 36 2.3 89 89 NW 5 7 29.47 998 10 16 0.00 0.00
5:58 am 05:58 Mostly Cloudy 40 4.4 36 2 85 85 NNW 9 15 29.48 998 10 16 0.00 0.00
6:58 am 06:58 Mostly Cloudy 39 3.9 37 2.8 93 93 NNW 7 11 29.49 999 10 16 0.00 0.00
7:58 am 07:58 Mostly Cloudy 40 4.4 38 3.1 91 91 Calm 29.53 1000 10 16 0.00 0.00
8:25 am 08:25 Mostly Cloudy with Light Rain 39 4 37 3 93 93 S 3 6 29.52 1000 10 16 0.00 0.00
8:52 am 08:52 Mostly Cloudy 41 5 37 3 87 87 Calm 29.54 1001 10 16 0.00 0.00
8:58 am 08:58 Mostly Cloudy 41 4.8 38 3.4 91 91 Calm 29.54 1001 10 16 0.00 0.00
9:00 am 09:00 Mostly Cloudy with Light Showers 41 5 37 3 87 87 Calm 29.54 1001 10 16 0.00 0.00
9:30 am 09:30 Cloudy with Light Showers 41 5 37 3 87 87 Calm 29.55 1001 10 16 0.00 0.00
9:58 am 09:58 Mostly Cloudy with Light Showers 41 5.1 37 2.7 85 85 Calm 29.57 1001 10 16 0.01 0.25
10:04 am 10:04 Mostly Cloudy 41 5 39 4 93 93 Calm 29.57 1002 10 16 0.00 0.00
10:16 am 10:16 Mostly Cloudy with Light Showers 41 5 37 3 87 87 Calm 29.57 1002 10 16 0.00 0.00
10:58 am 10:58 Cloudy with Light Showers 39 3.9 37 2.5 91 91 N 12 19 29.60 1003 10 16 0.00 0.00
11:03 am 11:03 Cloudy with Light Showers 39 4 36 2 87 87 N 12 19 29.60 1003 10 16 0.00 0.00
11:31 am 11:31 Mostly Cloudy 41 5 39 4 93 93 NNE 8 13 29.62 1003 10 16 0.00 0.00
11:58 am 11:58 Partly Cloudy 43 6.2 38 3.1 81 81 N 14 22 29.61 1003 10 16 0.00 0.00
12:58 pm 12:58 Partly Cloudy 46 7.8 35 1.7 66 66 N 15 24 29.60 1002 10 16 0.00 0.00
1:58 pm 13:58 Mostly Cloudy 49 9.4 31 -0.6 50 50 N 25 41 29.61 1003 10 16 0.00 0.00
2:58 pm 14:58 Mostly Cloudy 49 9.7 32 -0.2 50 50 N 16 26 29.65 1004 10 16 0.00 0.00
3:58 pm 15:58 Mostly Cloudy 49 9.6 32 0.1 52 52 N 17 28 29.68 1005 10 16 0.00 0.00
4:58 pm 16:58 Mostly Cloudy 49 9.2 31 -0.4 51 51 N 16 26 29.73 1007 10 16 0.00 0.00
5:44 pm 17:44 Mostly Cloudy with Light Rain 46 8 36 2 66 66 NNW 17 28 29.76 1008 10 16 0.00 0.00
5:54 pm 17:54 Mostly Cloudy with Rain 45 7 37 3 76 76 NW 21 33 29.77 1008 10 16 0.00 0.00
5:58 pm 17:58 Mostly Cloudy with Rain 44 6.8 37 2.9 76 76 NW 22 35 29.77 1008 10 16 0.01 0.25
6:26 pm 18:26 Mostly Cloudy 45 7 36 2 71 71 NW 20 31 29.80 1009 10 16 0.00 0.00
6:58 pm 18:58 Mostly Cloudy 45 7.1 34 1.2 66 66 NNW 12 19 29.79 1009 10 16 0.01 0.25

Powered by AerisWeather